Location: Alsip
(41.6689°N, 87.7387°W)
Time: 15:10:06
(UTC+00:00)

USA 32 - Pass Details

Date: 14 July 2020
Orbit: 776 x 784 km, 85.0° (Epoch: 09 August)

Event Time Altitude Azimuth Distance (km) Brightness Sun altitude
Exits shadow 06:05:49 78° 267° (W) 805 3.9 -26.7°
Maximum altitude 06:05:52 78° 275° (W) 805 4.0 -26.7°
Drops below altitude 10° 06:11:09 10° 2° (N) 2,346 7.5 -26.6°
Sets 06:13:31 0° 4° (N) 3,277 8.6 -26.6°
